Bookmark and Share
Track history (hours):
 

Thaani

Last reported at 2014-Apr-17 17:31 UTC. Time now 2014-Apr-18 08:10 UTC.
Position N 51°20' E 001°25'.

Length 14 m.

Type: Pleasure craft. MMSI: 269102970.

NotesDate/timePositionNaut miles runAvg speedWind from/ knotsBaromVisibWave heightAir tempDewpointWater temp
2014-Apr-17 17:31N 51°20' E 001°25'1 0.3
2014-Apr-17 15:10N 51°19' E 001°25'1 0.4
2014-Apr-17 13:21N 51°20' E 001°25'0 0.0
2014-Apr-17 12:33N 51°20' E 001°25'4 4.3
2014-Apr-17 11:34N 51°20' E 001°32'6 6.4
2014-Apr-17 10:33N 51°16' E 001°40'6 6.1
2014-Apr-17 09:30N 51°13' E 001°49'7 6.7
2014-Apr-17 08:28N 51°08' E 001°58'7 7.8
2014-Apr-17 07:32N 51°05' E 002°08'7 6.8
2014-Apr-17 06:33N 51°04' E 002°19'2 0.1
2014-Apr-16 11:18N 51°03' E 002°22'1 1.6
2014-Apr-16 10:33N 51°04' E 002°22'6 6.1
2014-Apr-16 09:33N 51°07' E 002°31'8 8.2
2014-Apr-16 08:32N 51°13' E 002°39'9 8.9
2014-Apr-16 07:33N 51°20' E 002°48'9 8.9
2014-Apr-16 06:32N 51°23' E 003°01'9 8.7
2014-Apr-16 05:32N 51°25' E 003°15'9 9.0
2014-Apr-16 04:33N 51°25' E 003°29'  
2014-Apr-13 16:30N 51°24' E 003°34'0 0.5
2014-Apr-13 15:33N 51°24' E 003°34'3 3.5
2014-Apr-13 14:33N 51°28' E 003°36'2 2.2
2014-Apr-13 13:31N 51°30' E 003°37'4 3.7
2014-Apr-13 12:33N 51°33' E 003°40'4 3.8
2014-Apr-13 11:33N 51°33' E 003°46'4 3.6
2014-Apr-13 10:31N 51°33' E 003°52'4 4.0
2014-Apr-13 09:33N 51°32' E 003°58'4 4.3
2014-Apr-13 08:33N 51°36' E 004°01'7 0.3
2014-Apr-12 11:11N 51°40' E 004°11'4 5.9
2014-Apr-12 10:30N 51°39' E 004°17'16 0.8
2014-Apr-11 15:23N 51°48' E 004°38'3 3.1
2014-Apr-11 14:32N 51°50' E 004°40'1 1.4
2014-Apr-11 13:31N 51°52' E 004°39'4 4.5
2014-Apr-11 12:31N 51°55' E 004°35'4 3.9
2014-Apr-11 11:33N 51°58' E 004°38'4 3.6
2014-Apr-11 10:33N 52°01' E 004°41'3 2.9
2014-Apr-11 09:33N 52°04' E 004°40'5 4.5
2014-Apr-11 08:31N 52°09' E 004°39'3 3.1
2014-Apr-11 07:33N 52°11' E 004°38'3 0.3
2014-Apr-10 19:07N 52°13' E 004°34'0 0.0
2014-Apr-10 18:16N 52°13' E 004°34'0 0.0
2014-Apr-10 17:22N 52°13' E 004°34'1 0.8
2014-Apr-10 16:28N 52°14' E 004°33'0 0.0
2014-Apr-10 15:25N 52°14' E 004°33'0 0.1
2014-Apr-10 14:33N 52°14' E 004°33'4 4.2
2014-Apr-10 13:33N 52°17' E 004°36'4 3.7
2014-Apr-10 12:26N 52°21' E 004°38'2 2.0
2014-Apr-10 11:17N 52°24' E 004°39'1 1.1
2014-Apr-10 10:33N 52°24' E 004°40'2 1.6
2014-Apr-10 09:28N 52°25' E 004°42'0 0.3
2014-Apr-10 08:31N 52°25' E 004°42'6 6.0
2014-Apr-10 07:33N 52°25' E 004°51'3 0.2
2014-Apr-09 19:31N 52°23' E 004°54'0 0.0
2014-Apr-09 18:31N 52°23' E 004°54'0 0.0
2014-Apr-09 17:31N 52°23' E 004°54'0 0.0
2014-Apr-09 16:31N 52°23' E 004°54'0 0.0
2014-Apr-09 15:31N 52°23' E 004°54'0 0.3
2014-Apr-09 14:33N 52°23' E 004°55'2 2.1
2014-Apr-09 13:32N 52°23' E 004°58'4 3.9
2014-Apr-09 12:33N 52°23' E 005°04'5 5.3
2014-Apr-09 11:33N 52°27' E 005°11'5 5.1
2014-Apr-09 10:33N 52°29' E 005°18'5 4.6
2014-Apr-09 09:33N 52°31' E 005°26'3 2.6
2014-Apr-09 08:32N 52°33' E 005°28'0 0.0
2014-Apr-08 13:08N 52°33' E 005°28'0 0.0
2014-Apr-08 12:32N 52°33' E 005°28'0 0.1
2014-Apr-08 11:33N 52°33' E 005°28'5 5.2
2014-Apr-08 10:33N 52°38' E 005°31'6 6.4
2014-Apr-08 09:33N 52°44' E 005°34'4 4.2
2014-Apr-08 08:33N 52°48' E 005°37'4 3.3
2014-Apr-08 07:16N 52°51' E 005°41'  

Dump ship's entire track history

sailing weather and tide predictions

Thaani — HBY4477 — position and weather